This demonstration page uses our WeatherBlox Daily Observations layout. Learn more.

39.92423, -83.80882

Hourly Observations for June 18, 2017

Temp ( °F °C ) Dew Point ( °F °C ) Humidity (%) Winds ( mph kmh ) Pressure ( in mb ) Visibility ( mi km ) Precip ( " mm )
12:58 am 00:58 Partly Cloudy 78 25.7 67 19.5 69 69 S 10 17 29.71 1006 10 16.0934 0 0
1:58 am 01:58 Cloudy 76 24.6 67 19.4 73 73 S 8 13 29.71 1006 10 16.0934 0 0
2:58 am 02:58 Cloudy 75 23.7 68 19.8 79 79 SSW 6 9 29.75 1008 10 16.0934 0 0
3:58 am 03:58 Cloudy 76 24.7 67 19.6 73 73 SSW 12 19 29.74 1007 10 16.0934 0 0
4:21 am 04:21 Cloudy with Rain 77 25 68 20 74 74 SSW 16 26 29.74 1007 4 6.43736 0 0
4:46 am 04:46 Cloudy 73 23 70 21 89 89 SW 13 20 29.74 1007 10 16.0934 0 0
4:51 am 04:51 Cloudy 73 23 72 22 94 94 SSW 10 17 29.74 1007 10 16.0934 0 0
4:58 am 04:58 Cloudy with Light Drizzle 73 23 71 21.6 92 92 SW 10 17 29.74 1007 8 12.87472 0.04 1.016
5:58 am 05:58 Cloudy 73 22.5 71 21.8 96 96 SSW 6 9 29.75 1007 10 16.0934 0 0.0254
6:25 am 06:25 Cloudy with Nearby Thunderstorms 73 23 72 22 94 94 S 12 19 29.75 1007 8 12.87472 0 0
6:58 am 06:58 Cloudy with Nearby Thunderstorms 72 22.3 72 22.3 100 100 S 13 20 29.75 1007 8 12.87472 0.01 0.254
7:17 am 07:17 Cloudy with Light Rain 72 22 72 22 100 100 S 13 20 29.74 1007 10 16.0934 0 0
7:58 am 07:58 Cloudy 72 22.1 72 22.1 100 100 S 17 28 29.7 1006 10 16.0934 0.03 0.762
8:58 am 08:58 Cloudy 74 23.1 73 22.8 98 98 S 12 19 29.69 1005 10 16.0934 0 0.0254
9:23 am 09:23 Mostly Cloudy 73 23 73 23 100 100 S 12 19 29.65 1004 10 16.0934 0 0
9:33 am 09:33 Partly Cloudy 73 23 72 22 94 94 S 14 22 29.65 1004 10 16.0934 0 0
9:48 am 09:48 Partly Cloudy 73 23 73 23 100 100 SW 15 24 29.68 1005 10 16.0934 0 0
9:58 am 09:58 Mostly Cloudy 74 23.5 73 22.8 96 96 SW 10 17 29.69 1005 10 16.0934 0 0
10:08 am 10:08 Partly Cloudy 75 24 73 23 94 94 WSW 13 20 29.7 1006 10 16.0934 0 0
10:58 am 10:58 Partly Cloudy 78 25.5 72 22.4 83 83 SW 22 35 29.72 1006 10 16.0934 0 0
11:18 am 11:18 Mostly Cloudy 79 26 72 22 79 79 SW 14 22 29.72 1006 10 16.0934 0 0
11:58 am 11:58 Cloudy 79 26.1 73 22.6 81 81 WSW 16 26 29.73 1007 10 16.0934 0 0
12:58 pm 12:58 Mostly Cloudy 82 28 72 22 70 70 SW 20 31 29.72 1007 10 16.0934 0 0
1:58 pm 13:58 Partly Cloudy 84 29 70 21.3 63 63 SW 22 35 29.72 1006 10 16.0934 0 0
2:58 pm 14:58 Mostly Cloudy 81 27.2 67 19.5 63 63 SW 20 31 29.71 1006 10 16.0934 0 0
3:58 pm 15:58 Cloudy 81 27 69 20.7 68 68 SW 14 22 29.71 1006 10 16.0934 0 0
4:58 pm 16:58 Mostly Cloudy 81 27.4 70 21 68 68 WSW 15 24 29.69 1005 10 16.0934 0 0
5:58 pm 17:58 Partly Cloudy 83 28.2 70 21.3 66 66 SSW 16 26 29.68 1005 10 16.0934 0 0.0254
6:58 pm 18:58 Cloudy 80 26.8 69 20.4 68 68 SW 13 20 29.7 1006 10 16.0934 0 0
7:58 pm 19:58 Cloudy 79 26.1 69 20.3 70 70 WSW 7 11 29.72 1006 10 16.0934 0 0
8:06 pm 20:06 Cloudy with Light Showers 79 26 70 21 74 74 WSW 10 17 29.72 1006 10 16.0934 0 0
8:08 pm 20:08 Cloudy with Nearby Thunderstorms 77 25 72 22 83 83 WSW 13 20 29.72 1006 10 16.0934 0 0
8:16 pm 20:16 Windy with Rain Showers Likely 75 24 72 22 89 89 WSW 20 31 29.73 1007 2 3.21868 0 0
8:22 pm 20:22 Cloudy with Heavy Thunderstorms 73 23 70 21 89 89 SW 17 28 29.74 1007 1.5 2.41401 0 0
8:35 pm 20:35 Cloudy with Light Thunderstorms 70 21 68 20 94 94 SW 9 15 29.71 1006 4 6.43736 0 0
8:44 pm 20:44 Cloudy with Nearby Thunderstorms 70 21 70 21 100 100 WSW 8 13 29.75 1008 10 16.0934 0 0
8:55 pm 20:55 Cloudy with Nearby Thunderstorms 69 20.6 69 20.6 100 100 WSW 5 7 29.75 1008 10 16.0934 0.12 3.048
9:13 pm 21:13 Cloudy with Nearby Thunderstorms 70 21 70 21 100 100 SW 3 6 29.75 1008 7 11.26538 0 0
9:30 pm 21:30 Mostly Cloudy with Light Rain 70 21 70 21 100 100 SW 7 11 29.77 1008 7 11.26538 0 0
9:58 pm 21:58 Mostly Cloudy with Light Rain 69 20.6 69 20.6 100 100 WSW 6 9 29.76 1008 7 11.26538 0.05 1.27
10:58 pm 22:58 Cloudy 70 21 70 21 100 100 Calm 29.77 1008 10 16.0934 0.01 0.254
11:58 pm 23:58 Cloudy 70 21 70 21 100 100 SW 5 7 29.79 1009 10 16.0934 0 0

Powered by AerisWeather